When you browse on this site, cookies collect data to enhance your experience and personalize the content and advertising you see.
Visit our Privacy Policy to learn more. By continuing to use the site, you agree to this use of cookies and data.
  • In Spain
  • List of Countries
  • For 7 days
  • Water Temperature
  • Satellite Maps
  • Weather Map
  • Weather Widgets
  • user-avatar
    Login

    Hourly Weather Dobryn

    Today, 16 November, Friday

    Time Temperature Precipitation Wind Pressure Humidity
    00:00 -5°C° 0 mm 3 mps 758 mmHg 37%
    01:00 -5°C° 0 mm 3 mps 758 mmHg 35%
    02:00 -5°C° 0 mm 3 mps 758 mmHg 35%
    03:00 -5°C° 0 mm 3 mps 758 mmHg 34%
    04:00 -6°C° 0 mm 3 mps 758 mmHg 33%
    05:00 -6°C° 0 mm 3 mps 759 mmHg 32%
    06:00 -7°C° 0 mm 4 mps 759 mmHg 32%
    07:00 -5°C° 0 mm 4 mps 759 mmHg 31%
    08:00 -5°C° 0 mm 4 mps 759 mmHg 30%
    09:00 -4°C° 0 mm 4 mps 760 mmHg 28%
    10:00 -3°C° 0 mm 4 mps 760 mmHg 26%
    11:00 -2°C° 0 mm 4 mps 760 mmHg 23%
    12:00 -2°C° 0 mm 4 mps 760 mmHg 23%
    13:00 -1°C° 0 mm 4 mps 760 mmHg 23%
    14:00 -1°C° 0 mm 4 mps 760 mmHg 23%
    15:00 -2°C° 0 mm 4 mps 760 mmHg 25%
    16:00 -3°C° 0 mm 4 mps 760 mmHg 26%
    17:00 -4°C° 0 mm 4 mps 760 mmHg 28%
    18:00 -4°C° 0 mm 3 mps 760 mmHg 27%
    19:00 -4°C° 0 mm 3 mps 760 mmHg 26%
    20:00 -4°C° 0 mm 3 mps 760 mmHg 25%
    21:00 -4°C° 0 mm 3 mps 760 mmHg 25%
    22:00 -5°C° 0 mm 3 mps 760 mmHg 24%
    23:00 -5°C° 0 mm 3 mps 760 mmHg 24%

    Tomorrow, 17 November, Saturday

    Time Temperature Precipitation Wind Pressure Humidity
    00:00 -5°C° 0 mm 3 mps 760 mmHg 24%
    01:00 -5°C° 0 mm 3 mps 760 mmHg 24%
    02:00 -5°C° 0 mm 3 mps 760 mmHg 24%
    03:00 -4°C° 0 mm 2 mps 760 mmHg 24%
    04:00 -4°C° 0 mm 2 mps 759 mmHg 23%
    05:00 -5°C° 0 mm 2 mps 759 mmHg 23%
    06:00 -4°C° 0 mm 2 mps 759 mmHg 23%
    07:00 -4°C° 0 mm 2 mps 759 mmHg 22%
    08:00 -4°C° 0 mm 2 mps 759 mmHg 21%
    09:00 -3°C° 0 mm 2 mps 759 mmHg 20%
    10:00 0°C° 0 mm 1 mps 759 mmHg 18%
    11:00 +2°C° 0 mm 1 mps 758 mmHg 16%
    12:00 +2°C° 0 mm 1 mps 758 mmHg 17%
    13:00 +2°C° 0 mm 1 mps 757 mmHg 18%
    14:00 +2°C° 0 mm 1 mps 757 mmHg 20%
    15:00 +1°C° 0 mm 1 mps 756 mmHg 20%
    16:00 0°C° 0 mm 1 mps 756 mmHg 20%
    17:00 -1°C° 0 mm 1 mps 755 mmHg 21%
    18:00 -1°C° 0 mm 1 mps 754 mmHg 21%
    19:00 -1°C° 0 mm 1 mps 754 mmHg 21%
    20:00 -3°C° 0 mm 2 mps 753 mmHg 21%
    21:00 -3°C° 0 mm 2 mps 753 mmHg 22%
    22:00 -3°C° 0 mm 2 mps 752 mmHg 23%
    23:00 -4°C° 0 mm 3 mps 751 mmHg 24%

    Day after tomorrow, 18 November, Sunday

    Time Temperature Precipitation Wind Pressure Humidity
    00:00 -4°C° 0 mm 3 mps 751 mmHg 26%
    01:00 -4°C° 0 mm 3 mps 750 mmHg 27%
    02:00 -4°C° 0 mm 4 mps 749 mmHg 28%
    03:00 -4°C° 0 mm 4 mps 748 mmHg 30%
    04:00 -4°C° 0 mm 4 mps 747 mmHg 33%
    05:00 -4°C° 0 mm 4 mps 746 mmHg 35%
    06:00 -4°C° 0 mm 4 mps 746 mmHg 39%
    07:00 -4°C° 0 mm 4 mps 746 mmHg 44%
    08:00 -4°C° 0 mm 4 mps 745 mmHg 49%
    09:00 -4°C° 0.1 mm 4 mps 745 mmHg 55%
    10:00 -4°C° 0.1 mm 4 mps 744 mmHg 62%
    11:00 -4°C° 0.1 mm 4 mps 744 mmHg 69%
    12:00 -2°C° 0 mm 3 mps 744 mmHg 71%
    13:00 -2°C° 0 mm 3 mps 744 mmHg 73%
    14:00 -2°C° 0 mm 3 mps 743 mmHg 76%
    15:00 -2°C° 0 mm 3 mps 743 mmHg 79%
    16:00 -2°C° 0 mm 2 mps 743 mmHg 82%
    17:00 -3°C° 0 mm 2 mps 743 mmHg 84%
    18:00 -3°C° 0.1 mm 2 mps 743 mmHg 86%
    19:00 -3°C° 0.1 mm 2 mps 743 mmHg 88%
    20:00 -1°C° 0.1 mm 1 mps 743 mmHg 90%
    21:00 -1°C° 0 mm 1 mps 743 mmHg 91%
    22:00 -1°C° 0 mm 1 mps 743 mmHg 92%
    23:00 -1°C° 0 mm 1 mps 743 mmHg 93%

    19 November, Monday

    Time Temperature Precipitation Wind Pressure Humidity
    00:00 -1°C° 0.1 mm 1 mps 744 mmHg 92%
    01:00 -1°C° 0.1 mm 1 mps 744 mmHg 92%
    02:00 -1°C° 0.1 mm 1 mps 744 mmHg 91%
    03:00 -1°C° 0.1 mm 1 mps 744 mmHg 91%
    04:00 -1°C° 0.1 mm 1 mps 744 mmHg 90%
    05:00 -1°C° 0.1 mm 1 mps 744 mmHg 89%
    06:00 -3°C° 0.1 mm 2 mps 745 mmHg 87%
    07:00 -3°C° 0.1 mm 2 mps 745 mmHg 84%
    08:00 -3°C° 0.1 mm 2 mps 746 mmHg 82%
    09:00 -3°C° 0 mm 2 mps 746 mmHg 75%
    10:00 -2°C° 0 mm 3 mps 746 mmHg 68%
    11:00 -2°C° 0 mm 3 mps 747 mmHg 61%
    12:00 -2°C° 0 mm 3 mps 747 mmHg 59%
    13:00 -1°C° 0 mm 3 mps 747 mmHg 58%
    14:00 -1°C° 0 mm 3 mps 748 mmHg 56%
    15:00 -2°C° 0 mm 3 mps 748 mmHg 59%
    16:00 -4°C° 0 mm 3 mps 748 mmHg 61%
    17:00 -4°C° 0 mm 3 mps 748 mmHg 64%
    18:00 -4°C° 0 mm 3 mps 749 mmHg 63%
    19:00 -4°C° 0 mm 3 mps 749 mmHg 62%
    20:00 -4°C° 0 mm 4 mps 749 mmHg 62%
    21:00 -3°C° 0 mm 4 mps 750 mmHg 64%
    22:00 -3°C° 0 mm 4 mps 750 mmHg 66%
    23:00 -3°C° 0 mm 4 mps 750 mmHg 68%

    20 November, Tuesday

    Time Temperature Precipitation Wind Pressure Humidity
    00:00 -3°C° 0 mm 4 mps 750 mmHg 68%
    01:00 -3°C° 0 mm 4 mps 750 mmHg 67%
    02:00 -3°C° 0 mm 4 mps 750 mmHg 66%
    03:00 -3°C° 0 mm 4 mps 750 mmHg 65%
    04:00 -3°C° 0 mm 4 mps 750 mmHg 65%
    05:00 -3°C° 0 mm 4 mps 750 mmHg 64%
    06:00 -3°C° 0 mm 4 mps 750 mmHg 62%
    07:00 -5°C° 0 mm 5 mps 750 mmHg 59%
    08:00 -5°C° 0 mm 5 mps 750 mmHg 57%
    09:00 -4°C° 0 mm 5 mps 750 mmHg 57%
    10:00 -4°C° 0 mm 5 mps 750 mmHg 56%
    11:00 -2°C° 0 mm 5 mps 750 mmHg 56%
    12:00 -2°C° 0 mm 5 mps 749 mmHg 62%
    13:00 -2°C° 0 mm 5 mps 749 mmHg 68%
    14:00 -2°C° 0 mm 5 mps 749 mmHg 74%
    15:00 -2°C° 0.1 mm 5 mps 749 mmHg 77%
    16:00 -4°C° 0.1 mm 5 mps 748 mmHg 80%
    17:00 -4°C° 0.1 mm 5 mps 748 mmHg 83%
    18:00 -4°C° 0.2 mm 5 mps 748 mmHg 85%
    19:00 -3°C° 0.2 mm 4 mps 748 mmHg 87%
    20:00 -4°C° 0.2 mm 4 mps 747 mmHg 88%
    21:00 -4°C° 0.1 mm 4 mps 747 mmHg 89%
    22:00 -4°C° 0.1 mm 3 mps 747 mmHg 90%
    23:00 -4°C° 0.1 mm 3 mps 747 mmHg 91%

    21 November, Wednesday

    Time Temperature Precipitation Wind Pressure Humidity
    00:00 -4°C° 0 mm 3 mps 747 mmHg 91%
    01:00 -4°C° 0 mm 3 mps 747 mmHg 92%
    02:00 -4°C° 0 mm 3 mps 746 mmHg 92%
    03:00 -4°C° 0 mm 3 mps 746 mmHg 92%
    04:00 -3°C° 0 mm 2 mps 746 mmHg 92%
    05:00 -3°C° 0 mm 2 mps 746 mmHg 93%
    06:00 -3°C° 0 mm 2 mps 745 mmHg 93%
    07:00 -3°C° 0 mm 2 mps 745 mmHg 94%
    08:00 -4°C° 0 mm 3 mps 745 mmHg 94%
    09:00 -4°C° 0 mm 3 mps 745 mmHg 92%
    10:00 -2°C° 0 mm 3 mps 745 mmHg 89%
    11:00 -3°C° 0 mm 4 mps 745 mmHg 87%
    12:00 -3°C° 0 mm 4 mps 744 mmHg 87%
    13:00 -3°C° 0 mm 4 mps 744 mmHg 86%
    14:00 -3°C° 0 mm 4 mps 744 mmHg 86%
    15:00 -3°C° 0 mm 4 mps 743 mmHg 87%
    16:00 -3°C° 0 mm 4 mps 743 mmHg 89%
    17:00 -3°C° 0 mm 4 mps 743 mmHg 90%
    18:00 -4°C° 0 mm 5 mps 742 mmHg 90%
    19:00 -4°C° 0 mm 5 mps 742 mmHg 90%
    20:00 -4°C° 0 mm 5 mps 742 mmHg 90%
    21:00 -4°C° 0 mm 5 mps 742 mmHg 89%
    22:00 -4°C° 0 mm 5 mps 741 mmHg 89%
    23:00 -4°C° 0 mm 6 mps 741 mmHg 88%
    Show more